Regional Weather Roundup
Issued by NWS

Home | Current Version | Previous Version | Graphics & Text | Print | Product List | Glossary On
Versions: 1 2 3 4 5 6 7 8 9 10 11 12 13 14 15 16 17 18 19 20 21 22 23 24 25 26 27 28 29 30 31 32 33 34 35 36 37 38 39 40 41 42 43 44 45 46 47 48 49 50
000
ASUS43 KDTX 271001
RWRMI
MICHIGAN HOURLY REGIONAL WEATHER ROUNDUP
NATIONAL WEATHER SERVICE DETROIT/PONTIAC MI
600 AM EDT TUE JUN 27 2017

NOTE: "FAIR" INDICATES FEW OR NO CLOUDS BELOW 12,000 FEET WITH NO
SIGNIFICANT WEATHER AND/OR OBSTRUCTION TO VISIBILITY.

MIZ047>049-052>055-059>063-066>070-074>076-081>083-271100-
SOUTHEAST LOWER MICHIGAN

CITY           SKY/WX    TMP DP  RH WIND       PRES   REMARKS
ADRIAN         CLEAR     49  46  90 NW3       30.06R
ALMA           PTCLDY    49  48  94 W7        30.04R
ANN ARBOR      PTCLDY    50  48  93 W7        30.03R
BAD AXE        CLOUDY    52  48  84 W5        29.98R
CARO           CLOUDY    52  47  84 W7        30.00R
DETROIT CITY   MOCLDY    52  47  83 NW8       30.02R
DETROIT        MOCLDY    52  48  86 W9        30.03R
FLINT          CLOUDY    53  49  86 W8        30.02R
GROSSE ILE     PTCLDY    51  47  84 W6        30.01S
HILLSDALE      CLEAR     46  45  93 W6        30.06R
HOWELL         CLOUDY    52  47  84 W7        30.03S

CITY           SKY/WX    TMP DP  RH WIND       PRES   REMARKS
JACKSON        CLEAR     48  46  93 W5        30.06R
LAMBERTVILLE   CLEAR     50  46  85 NW3       30.04R
LANSING        CLEAR     51  47  86 W6        30.05S
LAPEER         CLOUDY    53  46  76 W7        30.01R
MASON          CLEAR     49  48  95 W5        30.06R
MONROE         PTCLDY    49  46  91 W5        30.03R
MT. CLEMENS    MOCLDY    53  49  85 W10       29.98R
PONTIAC        PTCLDY    50  47  89 W7        30.01R
PORT HOPE        N/A     55  49  80 NW14G21   29.95R
PORT HURON     MOCLDY    50  46  87 W6        29.99R
TRI CITIES     MOCLDY    52  51  97 W10       30.02R
MIDLAND        MOCLDY    51  48  90 W6        30.01R
TROY           CLOUDY    54  46  74 NW5       30.03R
SAGINAW HB     CLOUDY    54  46  76 W9        30.01R
$$
MIZ043>046-050>051-056>058-064>065-071>073-077>080-271100-
SOUTHWEST LOWER MICHIGAN

CITY           SKY/WX    TMP DP  RH WIND       PRES   REMARKS
BATTLE CREEK   CLEAR     48  47  96 W5        30.08R
BENTON HARBOR  CLEAR     56  49  77 NW3       30.09R
BIG RAPIDS     CLEAR     48  46  93 W5        30.04R
COLDWATER      CLEAR     49  47  95 W5        30.08R
FREMONT        FOG       45  45 100 CALM      30.05S VSB 1
HOLLAND        CLEAR     48  45  89 CALM      30.08R
GRAND RAPIDS   PTCLDY    49  49 100 W7        30.06R
IONIA          FAIR      49  48  96 W5        30.05R
KALAMAZOO      CLEAR     50  45  83 CALM      30.08R
LUDINGTON      CLEAR     55  50  82 W5        30.03S
MARSHALL       CLEAR     47  46  98 W5        30.07R
MOUNT PLEASANT PTCLDY    50  47  90 W6        30.03R
MUSKEGON       PTCLDY    48  45  89 CALM      30.06S
SOUTH HAVEN    CLEAR     51  50  96 CALM      30.08R
$$
MIZ016>042-271100-
NORTHERN LOWER MICHIGAN

CITY           SKY/WX    TMP DP  RH WIND       PRES   REMARKS
ALPENA         CLEAR     48  47  96 W5        29.96R
BEAVER ISLAND  FOG       44  44  99 CALM      29.99S VSB 1/2
BELLAIRE       CLOUDY    46  46  97 CALM      30.01R
CADILLAC       CLOUDY    50  49  97 W7        30.02S FOG
CHARLEVOIX     CLEAR     50  49  97 SW3       30.02S
FRANKFORT      PTCLDY    46  44  91 CALM      30.01S
GAYLORD        CLEAR     49  45  86 W3        29.99R
GRAYLING       CLEAR     46  45  97 CALM      30.01R
HARBOR SPRINGS CLEAR     47  47 100 CALM      29.99R
HOUGHTON LAKE  CLEAR     49  47  93 NW8       30.01R
MANISTEE       CLEAR     43  42  97 E3        30.03R
OSCODA         CLOUDY    51  49  90 W9        29.95S
PELLSTON       CLEAR     45  43  93 CALM      29.99R
ROGERS CITY    CLEAR     50  47  90 W9        29.97R
TRAVERSE CITY  CLEAR     50  48  93 S3        30.00R
$$
MIZ007>008-015-271100-
EASTERN UPPER MICHIGAN

CITY           SKY/WX    TMP DP  RH WIND       PRES   REMARKS
KINROSS        CLEAR     41  41 100 CALM      29.96R
MACKINAC ISLAN CLEAR     48  48 100 W8        29.97S
NEWBERRY       CLEAR     43  42  97 W5        29.97R
S. S. MARIE    CLEAR     47  45  93 W6        29.94S
MUNISING         N/A     44  43  96 S8        29.97S
$$
MIZ004>006-011>014-085-271100-
CENTRAL UPPER MICHIGAN

CITY           SKY/WX    TMP DP  RH WIND       PRES   REMARKS
MANISTIQUE     CLEAR     42  39  89 W3        29.98S
ESCANABA       PTCLDY    45  45 100 CALM      30.00R
MENOMINEE      CLEAR     48  46  93 W3        30.03R
SAWYER-GWINN   CLOUDY    47  45  91 W6        29.99S
$$
MIZ001>003-009>011-084-271100-
WESTERN UPPER MICHIGAN

CITY           SKY/WX    TMP DP  RH WIND       PRES   REMARKS
IRON MOUNTAIN  PTCLDY    47  43  86 CALM      30.01R
HOUGHTON       CLEAR     49  44  83 NW9       29.98R
COPPER HARBOR    N/A     54  45  71 NW6       29.96R
IRONWOOD       CLEAR     49  47  93 SW3       30.03R
$$

ABBREVIATIONS USED IN REMARKS
   TC - TEMPERATURE IN CELSIUS
  WCI - WIND CHILL INDEX
   HX - HEAT INDEX
  VSB - VISIBILITY





USA.gov is the U.S. government's official web portal to all federal, state and local government web resources and services.